N1UEC Weather Reports


time (UTC)temp
F
wind
direction
speed
knots
gust
knots
rain 1hr
in
rain 24hr
in
rain mn
in
humidity
%
barometer
mb
20260505041712 52 55 0.9 7.0 0.00 0.00 0.00 79 1012.6
20260505041556 52 37 2.6 7.0 0.00 0.00 0.00 79 1012.7
20260505041458 52 338 2.6 7.0 0.00 0.00 0.00 79 1012.6
20260505041421 52 32 0.9 4.3 0.00 0.00 0.00 79 1012.7
20260505041308 52 56 0.9 5.2 0.00 0.00 0.00 79 1012.6
20260505041211 52 62 0.0 9.6 0.00 0.00 0.00 79 1012.6
20260505041056 52 63 0.9 9.6 0.00 0.00 0.00 79 1012.7
20260505040958 52 37 1.7 9.6 0.00 0.00 0.00 78 1012.7
20260505040902 52 42 1.7 9.6 0.00 0.00 0.00 78 1012.7
20260505040805 52 46 0.9 9.6 0.00 0.00 0.00 78 1012.7
20260505040729 52 25 0.0 9.6 0.00 0.00 0.00 78 1012.7
20260505040555 52 30 2.6 9.6 0.00 0.00 0.00 78 1012.7
20260505040458 52 28 3.5 9.6 0.00 0.00 0.00 78 1012.7
20260505040421 52 353 2.6 10.4 0.00 0.00 0.00 78 1012.7
20260505040304 52 47 1.7 4.3 0.00 0.00 0.00 78 1012.7
20260505040228 52 18 0.9 7.0 0.00 0.00 0.00 78 1012.7
20260505040122 52 60 0.9 7.0 0.00 0.00 0.00 78 1012.7
20260505040007 52 49 0.0 7.0 0.00 0.00 0.00 77 1012.7
20260505035854 52 69 0.9 7.0 0.00 0.00 0.00 77 1012.7
20260505035758 52 70 0.9 7.0 0.00 0.00 0.00 77 1012.7
20260505035701 52 57 0.0 7.0 0.00 0.00 0.00 77 1012.6
20260505035606 52 57 0.0 7.0 0.00 0.00 0.00 77 1012.7
20260505035508 52 57 2.6 7.0 0.00 0.00 0.00 77 1012.7
20260505035355 53 37 1.7 8.7 0.00 0.00 0.00 77 1012.7
20260505035259 53 60 0.9 6.1 0.00 0.00 0.00 77 1012.7
20260505035202 53 74 0.9 6.1 0.00 0.00 0.00 76 1012.6
20260505035106 53 37 0.9 6.1 0.00 0.00 0.00 76 1012.6
20260505035008 53 47 0.9 6.1 0.00 0.00 0.00 76 1012.6
20260505034912 53 42 0.9 6.1 0.00 0.00 0.00 76 1012.6
20260505034759 53 20 0.9 7.0 0.00 0.00 0.00 76 1012.6
20260505034703 53 37 1.7 7.0 0.00 0.00 0.00 76 1012.5
20260505034607 53 49 2.6 7.0 0.00 0.00 0.00 76 1012.5
20260505034510 53 356 0.9 7.0 0.00 0.00 0.00 76 1012.5
20260505034434 53 51 0.9 7.0 0.00 0.00 0.00 75 1012.5
20260505034256 53 39 0.9 7.0 0.00 0.00 0.00 75 1012.5
20260505034200 53 33 0.9 7.0 0.00 0.00 0.00 75 1012.5
20260505034107 53 40 1.7 7.0 0.00 0.00 0.00 75 1012.5
20260505034009 53 47 2.6 7.8 0.00 0.00 0.00 75 1012.5
20260505033933 53 40 0.9 5.2 0.00 0.00 0.00 75 1012.5
20260505033816 53 57 0.9 5.2 0.00 0.00 0.00 74 1012.5
20260505033658 53 40 2.6 5.2 0.00 0.00 0.00 74 1012.5
20260505033603 53 46 2.6 7.0 0.00 0.00 0.00 74 1012.4
20260505033505 53 21 1.7 7.0 0.00 0.00 0.00 74 1012.4
20260505033433 53 52 0.9 7.0 0.00 0.00 0.00 74 1012.4
20260505033255 53 29 0.9 7.0 0.00 0.00 0.00 74 1012.4
20260505033159 53 32 1.7 7.0 0.00 0.00 0.00 74 1012.4
20260505033103 53 49 0.9 7.0 0.00 0.00 0.00 74 1012.4
20260505033005 53 326 0.0 7.0 0.00 0.00 0.00 74 1012.5
20260505032929 53 15 1.7 7.0 0.00 0.00 0.00 73 1012.5
20260505032755 53 15 1.7 7.0 0.00 0.00 0.00 73 1012.4
20260505032658 53 49 1.7 7.0 0.00 0.00 0.00 73 1012.4
20260505032602 54 8 1.7 7.0 0.00 0.00 0.00 73 1012.4
20260505032504 54 37 2.6 7.0 0.00 0.00 0.00 73 1012.4
20260505032408 54 337 2.6 7.0 0.00 0.00 0.00 73 1012.4
20260505032312 54 28 0.9 7.0 0.00 0.00 0.00 73 1012.4
20260505032159 54 62 2.6 7.0 0.00 0.00 0.00 73 1012.5
20260505032103 54 68 2.6 7.0 0.00 0.00 0.00 73 1012.4
20260505032026 54 18 0.0 7.0 0.00 0.00 0.00 73 1012.5
20260505031909 54 58 0.0 7.0 0.00 0.00 0.00 73 1012.5
20260505031832 54 69 0.9 7.0 0.00 0.00 0.00 73 1012.4
20260505031715 54 54 0.9 7.0 0.00 0.00 0.00 73 1012.4
20260505031557 54 41 0.9 6.1 0.00 0.00 0.00 73 1012.4
20260505031500 54 22 1.7 6.1 0.00 0.00 0.00 72 1012.5
20260505031408 54 32 0.9 6.1 0.00 0.00 0.00 72 1012.4
20260505031311 54 345 0.0 6.1 0.00 0.00 0.00 72 1012.5
20260505031154 54 59 0.9 6.1 0.00 0.00 0.00 72 1012.5
20260505031058 54 69 1.7 6.1 0.00 0.00 0.00 72 1012.5
20260505031000 54 49 2.6 7.0 0.00 0.00 0.00 72 1012.5
20260505030904 54 20 2.6 7.0 0.00 0.00 0.00 72 1012.5
20260505030831 54 42 1.7 7.0 0.00 0.00 0.00 72 1012.5
20260505030713 54 41 0.9 7.0 0.00 0.00 0.00 72 1012.5
20260505030557 54 57 0.0 7.0 0.00 0.00 0.00 72 1012.5
20260505030520 54 9 1.7 7.0 0.00 0.00 0.00 72 1012.5
20260505030403 54 8 1.7 7.0 0.00 0.00 0.00 72 1012.5
20260505030327 54 58 2.6 7.0 0.00 0.00 0.00 71 1012.5
20260505030209 54 57 3.5 7.0 0.00 0.00 0.00 71 1012.5
20260505030128 54 347 2.6 6.1 0.00 0.00 0.00 71 1012.5
20260505030012 54 46 1.7 6.1 0.00 0.00 0.00 71 1012.5
20260505025855 54 15 1.7 6.1 0.00 0.00 0.00 71 1012.5
20260505025759 54 8 0.9 6.1 0.00 0.00 0.00 71 1012.5
20260505025702 54 63 0.0 6.1 0.00 0.00 0.00 71 1012.5
20260505025627 54 72 0.9 6.1 0.00 0.00 0.00 71 1012.6
20260505025508 54 73 0.9 6.1 0.00 0.00 0.00 71 1012.6
20260505025416 54 34 1.7 6.1 0.00 0.00 0.00 71 1012.6
20260505025258 54 352 1.7 6.1 0.00 0.00 0.00 71 1012.6
20260505025201 54 38 0.9 6.1 0.00 0.00 0.00 70 1012.6
20260505025105 54 93 1.7 6.1 0.00 0.00 0.00 70 1012.6
20260505025028 54 347 1.7 6.1 0.00 0.00 0.00 70 1012.6
20260505024910 54 42 0.9 6.1 0.00 0.00 0.00 70 1012.6
20260505024757 54 49 0.9 6.1 0.00 0.00 0.00 70 1012.6
20260505024701 54 18 1.7 7.0 0.00 0.00 0.00 70 1012.6
20260505024605 54 30 2.6 7.0 0.00 0.00 0.00 70 1012.6
20260505024508 54 9 1.7 7.0 0.00 0.00 0.00 70 1012.6
20260505024411 54 34 0.9 7.0 0.00 0.00 0.00 69 1012.6
20260505024255 55 22 2.6 7.0 0.00 0.00 0.00 69 1012.6
20260505024218 55 62 3.5 7.0 0.00 0.00 0.00 69 1012.7
20260505024105 55 3 2.6 7.0 0.00 0.00 0.00 69 1012.7
20260505024027 55 351 2.6 7.0 0.00 0.00 0.00 69 1012.7
20260505023909 55 4 1.7 7.0 0.00 0.00 0.00 69 1012.7
20260505023813 55 37 0.0 7.0 0.00 0.00 0.00 69 1012.7
20260505023656 55 57 1.7 7.0 0.00 0.00 0.00 69 1012.6
20260505023559 55 25 2.6 7.0 0.00 0.00 0.00 68 1012.6
20260505023522 55 38 1.7 6.1 0.00 0.00 0.00 68 1012.6
20260505023409 55 37 0.9 7.8 0.00 0.00 0.00 68 1012.6
20260505023312 55 87 0.9 7.8 0.00 0.00 0.00 68 1012.6
20260505023216 55 28 1.7 7.8 0.00 0.00 0.00 68 1012.6
20260505023059 55 44 1.7 7.8 0.00 0.00 0.00 68 1012.7
20260505023002 55 44 1.7 7.8 0.00 0.00 0.00 68 1012.6
20260505022905 55 33 2.6 7.8 0.00 0.00 0.00 68 1012.6
20260505022813 55 98 2.6 7.8 0.00 0.00 0.00 68 1012.6
20260505022716 55 41 1.7 7.8 0.00 0.00 0.00 67 1012.7
20260505022559 55 47 0.9 8.7 0.00 0.00 0.00 67 1012.7
20260505022501 55 35 0.9 7.8 0.00 0.00 0.00 67 1012.7
20260505022405 55 32 0.9 7.8 0.00 0.00 0.00 67 1012.6
20260505022309 55 79 1.7 7.8 0.00 0.00 0.00 67 1012.7
20260505022156 55 48 4.3 7.8 0.00 0.00 0.00 67 1012.7
20260505022100 55 15 3.5 7.8 0.00 0.00 0.00 67 1012.7
20260505022002 55 44 3.5 7.8 0.00 0.00 0.00 67 1012.7
20260505021905 55 37 3.5 7.8 0.00 0.00 0.00 67 1012.6
20260505021809 55 337 1.7 7.8 0.00 0.00 0.00 67 1012.7
20260505021712 55 40 0.9 8.7 0.00 0.00 0.00 67 1012.6
20260505021601 55 56 1.7 9.6 0.00 0.00 0.00 66 1012.7
20260505021503 55 44 1.7 9.6 0.00 0.00 0.00 66 1012.7
20260505021407 55 4 1.7 9.6 0.00 0.00 0.00 66 1012.6
20260505021331 55 25 1.7 9.6 0.00 0.00 0.00 66 1012.6
20260505021212 55 18 1.7 9.6 0.00 0.00 0.00 66 1012.6
20260505021055 55 34 1.7 9.6 0.00 0.00 0.00 66 1012.6
20260505021018 55 125 1.7 9.6 0.00 0.00 0.00 66 1012.6
20260505020921 55 47 3.5 9.6 0.00 0.00 0.00 66 1012.5
20260505020806 55 32 3.5 10.4 0.00 0.00 0.00 66 1012.6
20260505020710 55 16 1.7 8.7 0.00 0.00 0.00 66 1012.6
20260505020614 55 54 1.7 8.7 0.00 0.00 0.00 65 1012.6
20260505020516 55 354 1.7 8.7 0.00 0.00 0.00 65 1012.6
20260505020358 55 94 1.7 8.7 0.00 0.00 0.00 65 1012.6
20260505020302 55 51 1.7 8.7 0.00 0.00 0.00 65 1012.6
20260505020210 55 16 1.7 8.7 0.00 0.00 0.00 65 1012.6
20260505020145 55 55 1.7 8.7 0.00 0.00 0.00 65 1012.6
20260505020009 56 70 3.5 8.7 0.00 0.00 0.00 65 1012.6
20260505015933 56 54 2.6 8.7 0.00 0.00 0.00 65 1012.5
20260505015755 56 37 0.9 7.8 0.00 0.00 0.00 64 1012.5
20260505015658 56 65 2.6 7.8 0.00 0.00 0.00 64 1012.6
20260505015602 56 37 4.3 7.8 0.00 0.00 0.00 64 1012.6
20260505015509 56 20 4.3 7.8 0.00 0.00 0.00 64 1012.6
20260505015412 56 14 2.6 7.8 0.00 0.00 0.00 64 1012.6
20260505015255 56 22 1.7 7.8 0.00 0.00 0.00 64 1012.6
20260505015159 56 68 0.9 7.8 0.00 0.00 0.00 64 1012.6
20260505015103 56 39 0.0 5.2 0.00 0.00 0.00 64 1012.6
20260505015027 56 34 1.7 8.7 0.00 0.00 0.00 64 1012.6
20260505014930 56 60 2.6 8.7 0.00 0.00 0.00 64 1012.6
20260505014756 56 336 2.6 8.7 0.00 0.00 0.00 63 1012.6
20260505014720 56 51 1.7 8.7 0.00 0.00 0.00 63 1012.6
20260505014604 56 42 0.9 8.7 0.00 0.00 0.00 63 1012.6
20260505014506 56 36 1.7 8.7 0.00 0.00 0.00 63 1012.7
20260505014409 56 30 2.6 8.7 0.00 0.00 0.00 63 1012.6
20260505014312 56 37 1.7 8.7 0.00 0.00 0.00 63 1012.6
20260505014159 56 71 1.7 8.7 0.00 0.00 0.00 63 1012.6
20260505014103 56 29 2.6 8.7 0.00 0.00 0.00 62 1012.6
20260505014005 56 57 4.3 8.7 0.00 0.00 0.00 62 1012.6
20260505013909 56 67 4.3 8.7 0.00 0.00 0.00 62 1012.6
20260505013812 56 44 2.6 8.7 0.00 0.00 0.00 62 1012.6
20260505013655 56 31 1.7 8.7 0.00 0.00 0.00 62 1012.6
20260505013604 56 29 1.7 8.7 0.00 0.00 0.00 62 1012.5
20260505013506 56 60 2.6 8.7 0.00 0.00 0.00 62 1012.5
20260505013410 56 345 1.7 8.7 0.00 0.00 0.00 62 1012.5
20260505013253 56 27 0.9 10.4 0.00 0.00 0.00 61 1012.5
20260505013157 56 86 2.6 10.4 0.00 0.00 0.00 61 1012.5
20260505013100 56 41 2.6 10.4 0.00 0.00 0.00 61 1012.4
20260505013007 56 13 1.7 10.4 0.00 0.00 0.00 61 1012.5
20260505012931 56 352 1.7 10.4 0.00 0.00 0.00 61 1012.4
20260505012813 56 74 2.6 10.4 0.00 0.00 0.00 61 1012.5
20260505012609 57 45 1.7 10.4 0.00 0.00 0.00 61 1012.4
20260505012511 57 36 2.6 11.3 0.00 0.00 0.00 60 1012.4
20260505012434 57 67 0.9 8.7 0.00 0.00 0.00 60 1012.4
20260505012321 57 31 2.6 8.7 0.00 0.00 0.00 60 1012.4
20260505012203 57 34 3.5 8.7 0.00 0.00 0.00 60 1012.3
20260505012107 57 22 1.7 9.6 0.00 0.00 0.00 60 1012.4
20260505012009 57 84 0.9 7.0 0.00 0.00 0.00 60 1012.3
20260505011913 57 53 2.6 7.0 0.00 0.00 0.00 60 1012.3
20260505011756 57 49 2.6 7.0 0.00 0.00 0.00 60 1012.3
20260505011704 57 57 1.7 7.0 0.00 0.00 0.00 60 1012.3
20260505011628 57 25 0.9 7.8 0.00 0.00 0.00 60 1012.3
20260505011529 57 70 0.9 7.8 0.00 0.00 0.00 59 1012.3
20260505011412 57 30 1.7 7.8 0.00 0.00 0.00 59 1012.3
20260505011255 57 1 0.9 7.8 0.00 0.00 0.00 59 1012.2
20260505011159 57 62 1.7 7.8 0.00 0.00 0.00 59 1012.2
20260505011123 57 25 1.7 7.8 0.00 0.00 0.00 59 1012.2
20260505011005 57 4 2.6 7.8 0.00 0.00 0.00 59 1012.2
20260505010912 57 11 3.5 7.8 0.00 0.00 0.00 59 1012.2
20260505010755 57 18 2.6 7.8 0.00 0.00 0.00 59 1012.2
20260505010658 57 47 2.6 7.8 0.00 0.00 0.00 58 1012.2
20260505010623 57 1 4.3 7.8 0.00 0.00 0.00 58 1012.2
20260505010505 57 68 2.6 7.8 0.00 0.00 0.00 58 1012.1
20260505010408 57 345 0.9 7.8 0.00 0.00 0.00 58 1012.1
20260505010255 57 29 1.7 8.7 0.00 0.00 0.00 58 1012.0
20260505010159 57 50 1.7 8.7 0.00 0.00 0.00 58 1012.0
20260505010113 57 53 2.6 8.7 0.00 0.00 0.00 58 1012.0
20260505005958 57 25 1.7 8.7 0.00 0.00 0.00 57 1012.0
20260505005922 58 358 1.7 8.7 0.00 0.00 0.00 57 1012.0
20260505005804 58 332 2.6 8.7 0.00 0.00 0.00 57 1012.0
20260505005708 58 76 2.6 8.7 0.00 0.00 0.00 57 1012.0
20260505005616 58 348 4.3 8.7 0.00 0.00 0.00 57 1012.0
20260505005458 58 29 3.5 10.4 0.00 0.00 0.00 57 1012.0
20260505005402 58 41 2.6 7.8 0.00 0.00 0.00 57 1011.9
20260505005305 58 46 3.5 7.8 0.00 0.00 0.00 57 1011.9
20260505005209 58 16 3.5 8.7 0.00 0.00 0.00 56 1011.9
20260505005112 58 33 2.6 7.8 0.00 0.00 0.00 56 1011.9
20260505004958 58 51 2.6 7.8 0.00 0.00 0.00 56 1011.9
20260505004902 58 33 2.6 9.6 0.00 0.00 0.00 56 1011.9
20260505004805 58 47 2.6 9.6 0.00 0.00 0.00 56 1011.8
20260505004709 58 35 1.7 9.6 0.00 0.00 0.00 56 1011.7
20260505004613 58 358 1.7 9.6 0.00 0.00 0.00 56 1011.8
20260505004516 58 347 0.9 10.4 0.00 0.00 0.00 55 1011.7
20260505004402 58 59 0.9 10.4 0.00 0.00 0.00 55 1011.7
20260505004305 58 69 1.7 10.4 0.00 0.00 0.00 55 1011.7
20260505004209 58 42 3.5 10.4 0.00 0.00 0.00 55 1011.6
20260505004133 58 88 2.6 10.4 0.00 0.00 0.00 55 1011.6
20260505003954 58 18 1.7 10.4 0.00 0.00 0.00 55 1011.6
20260505003857 58 13 1.7 10.4 0.00 0.00 0.00 55 1011.6
20260505003801 58 56 2.6 10.4 0.00 0.00 0.00 55 1011.6
20260505003729 58 69 3.5 10.4 0.00 0.00 0.00 55 1011.6
20260505003611 59 347 6.1 12.2 0.00 0.00 0.00 55 1011.6
20260505003453 59 18 1.7 11.3 0.00 0.00 0.00 54 1011.6
20260505003417 59 49 0.9 9.6 0.00 0.00 0.00 54 1011.5
20260505003259 59 70 0.9 9.6 0.00 0.00 0.00 54 1011.5
20260505003223 59 1 0.9 9.6 0.00 0.00 0.00 54 1011.4
20260505003107 59 27 1.7 9.6 0.00 0.00 0.00 54 1011.3
20260505003013 59 76 2.6 9.6 0.00 0.00 0.00 54 1011.3
20260505002857 59 49 1.7 9.6 0.00 0.00 0.00 54 1011.3
20260505002800 59 346 0.9 9.6 0.00 0.00 0.00 54 1011.3
20260505002703 59 32 2.6 9.6 0.00 0.00 0.00 54 1011.2
20260505002607 59 1 3.5 9.6 0.00 0.00 0.00 54 1011.2
20260505002510 59 34 2.6 10.4 0.00 0.00 0.00 53 1011.2
20260505002357 59 91 1.7 9.6 0.00 0.00 0.00 53 1011.2
20260505002300 59 43 3.5 9.6 0.00 0.00 0.00 53 1011.1
20260505002204 59 352 4.3 9.6 0.00 0.00 0.00 53 1011.1
20260505002109 59 8 3.5 9.6 0.00 0.00 0.00 53 1011.0
20260505002031 59 345 2.6 9.6 0.00 0.00 0.00 53 1011.0
20260505001853 59 35 2.6 9.6 0.00 0.00 0.00 52 1011.0
20260505001801 60 345 3.5 9.6 0.00 0.00 0.00 52 1011.0
20260505001704 60 39 3.5 9.6 0.00 0.00 0.00 52 1010.9
20260505001609 60 8 2.6 9.6 0.00 0.00 0.00 52 1010.9
20260505001511 60 13 0.9 13.0 0.00 0.00 0.00 51 1010.9
20260505001415 60 51 0.0 13.0 0.00 0.00 0.00 51 1010.8
20260505001318 60 62 0.9 13.0 0.00 0.00 0.00 51 1010.8
20260505001221 60 20 0.9 13.0 0.00 0.00 0.00 51 1010.8
20260505001103 60 21 0.9 13.0 0.00 0.00 0.00 50 1010.8
20260505001010 60 21 1.7 13.0 0.00 0.00 0.00 50 1010.8
20260505000913 60 20 2.6 13.0 0.00 0.00 0.00 50 1010.7
20260505000756 60 342 6.1 13.0 0.00 0.00 0.00 50 1010.7
20260505000700 60 25 5.2 13.0 0.00 0.00 0.00 50 1010.7
20260505000605 60 339 4.3 12.2 0.00 0.00 0.00 50 1010.7
20260505000507 60 105 3.5 12.2 0.00 0.00 0.00 50 1010.7
20260505000415 60 80 3.5 12.2 0.00 0.00 0.00 50 1010.7
20260505000257 60 30 2.6 11.3 0.00 0.00 0.00 50 1010.7
20260505000201 60 359 4.3 11.3 0.00 0.00 0.00 50 1010.6
20260505000117 60 45 6.1 11.3 0.00 0.00 0.00 50 1010.6
20260505000002 60 359 6.1 12.2 0.00 0.00 0.00 50 1010.6
20260504235905 60 79 3.5 12.2 0.00 0.00 0.00 50 1010.6
20260504235813 60 15 1.7 12.2 0.00 0.00 0.00 50 1010.6
20260504235716 61 37 2.6 12.2 0.00 0.00 0.00 50 1010.5
20260504235559 61 342 3.5 12.2 0.00 0.00 0.00 50 1010.5
20260504235501 61 30 3.5 12.2 0.00 0.00 0.00 50 1010.5
20260504235405 61 23 3.5 12.2 0.00 0.00 0.00 50 1010.5
20260504235308 61 33 4.3 12.2 0.00 0.00 0.00 49 1010.5
20260504235232 61 328 7.0 12.2 0.00 0.00 0.00 49 1010.5
20260504235100 61 59 4.3 12.2 0.00 0.00 0.00 49 1010.4
20260504235002 61 12 2.6 10.4 0.00 0.00 0.00 50 1010.5
20260504234905 61 83 3.5 10.4 0.00 0.00 0.00 49 1010.5
20260504234808 61 57 3.5 10.4 0.00 0.00 0.00 49 1010.5
20260504234712 61 19 3.5 9.6 0.00 0.00 0.00 49 1010.4
20260504234556 61 33 3.5 7.8 0.00 0.00 0.00 49 1010.5
20260504234502 61 338 3.5 9.6 0.00 0.00 0.00 49 1010.5
20260504234406 61 50 3.5 9.6 0.00 0.00 0.00 49 1010.5
20260504234309 61 37 1.7 9.6 0.00 0.00 0.00 49 1010.4
20260504234212 61 37 0.9 9.6 0.00 0.00 0.00 49 1010.4
20260504234056 61 57 3.5 9.6 0.00 0.00 0.00 49 1010.4
20260504233958 61 351 4.3 9.6 0.00 0.00 0.00 49 1010.3
20260504233905 61 28 3.5 9.6 0.00 0.00 0.00 49 1010.3
20260504233809 61 31 2.6 9.6 0.00 0.00 0.00 49 1010.3
20260504233713 61 18 1.7 11.3 0.00 0.00 0.00 48 1010.2
20260504233616 62 41 0.9 11.3 0.00 0.00 0.00 49 1010.2
20260504233458 62 36 0.9 11.3 0.00 0.00 0.00 48 1010.2
20260504233401 62 71 0.9 11.3 0.00 0.00 0.00 49 1010.2
20260504233309 62 76 1.7 11.3 0.00 0.00 0.00 48 1010.2
20260504233212 62 37 3.5 11.3 0.00 0.00 0.00 48 1010.1
20260504233056 62 51 3.5 11.3 0.00 0.00 0.00 48 1010.1
20260504232958 62 56 4.3 11.3 0.00 0.00 0.00 48 1010.1
20260504232922 62 38 5.2 12.2 0.00 0.00 0.00 48 1010.2
20260504232804 62 12 4.3 11.3 0.00 0.00 0.00 48 1010.1
20260504232728 62 50 4.3 11.3 0.00 0.00 0.00 48 1010.1
20260504232556 62 25 4.3 11.3 0.00 0.00 0.00 48 1010.1
20260504232458 62 32 3.5 11.3 0.00 0.00 0.00 48 1010.1
20260504232401 62 13 2.6 11.3 0.00 0.00 0.00 48 1010.0
20260504232305 62 106 2.6 11.3 0.00 0.00 0.00 48 1010.1
20260504232209 62 84 3.5 14.8 0.00 0.00 0.00 48 1010.1
20260504232112 62 39 4.3 14.8 0.00 0.00 0.00 48 1010.0
20260504232019 62 49 4.3 14.8 0.00 0.00 0.00 48 1010.1
20260504231901 62 360 1.7 14.8 0.00 0.00 0.00 48 1010.0
20260504231805 63 70 1.7 14.8 0.00 0.00 0.00 48 1010.0
20260504231708 63 4 3.5 14.8 0.00 0.00 0.00 48 1010.0
20260504231612 63 13 5.2 14.8 0.00 0.00 0.00 48 1009.9
20260504231454 63 40 5.2 14.8 0.00 0.00 0.00 48 1010.0
20260504231418 63 328 4.3 14.8 0.00 0.00 0.00 48 1010.0
20260504231304 63 349 2.6 8.7 0.00 0.00 0.00 48 1010.0
20260504231208 63 18 2.6 8.7 0.00 0.00 0.00 48 1009.9
20260504231112 63 10 3.5 8.7 0.00 0.00 0.00 47 1010.0
20260504231035 63 48 2.6 8.7 0.00 0.00 0.00 47 1009.9
20260504230856 63 32 3.5 8.7 0.00 0.00 0.00 47 1009.9
20260504230800 63 20 4.3 8.7 0.00 0.00 0.00 47 1009.9
20260504230708 63 65 6.1 8.7 0.00 0.00 0.00 47 1009.9
20260504230611 63 53 5.2 9.6 0.00 0.00 0.00 47 1009.8
20260504230453 63 8 3.5 8.7 0.00 0.00 0.00 47 1009.8
20260504230357 63 76 0.9 8.7 0.00 0.00 0.00 47 1009.8
20260504230300 63 46 0.0 8.7 0.00 0.00 0.00 47 1009.8
20260504230204 63 33 1.7 8.7 0.00 0.00 0.00 47 1009.8
20260504230122 63 31 2.6 8.7 0.00 0.00 0.00 47 1009.7
20260504230007 63 81 3.5 10.4 0.00 0.00 0.00 47 1009.8
20260504225910 64 81 3.5 10.4 0.00 0.00 0.00 47 1009.7
20260504225754 64 96 3.5 10.4 0.00 0.00 0.00 47 1009.8
20260504225657 64 13 2.6 13.0 0.00 0.00 0.00 47 1009.7
20260504225601 64 339 2.6 13.0 0.00 0.00 0.00 47 1009.7
20260504225507 64 350 2.6 13.0 0.00 0.00 0.00 47 1009.7
20260504225411 64 18 3.5 13.0 0.00 0.00 0.00 47 1009.7
20260504225314 64 307 4.3 13.0 0.00 0.00 0.00 47 1009.7
20260504225157 64 84 3.5 13.0 0.00 0.00 0.00 47 1009.7
20260504225101 64 118 1.7 13.0 0.00 0.00 0.00 47 1009.6
20260504225004 64 51 3.5 13.0 0.00 0.00 0.00 47 1009.6
20260504224907 64 51 4.3 13.9 0.00 0.00 0.00 47 1009.6
20260504224754 64 46 3.5 7.8 0.00 0.00 0.00 46 1009.5
20260504224658 64 345 3.5 7.8 0.00 0.00 0.00 46 1009.6
20260504224622 64 351 1.7 7.8 0.00 0.00 0.00 46 1009.6
20260504224503 64 360 0.9 8.7 0.00 0.00 0.00 46 1009.6
20260504224407 64 42 0.9 7.8 0.00 0.00 0.00 47 1009.6
20260504224310 64 30 0.9 7.8 0.00 0.00 0.00 47 1009.6
20260504224157 65 68 0.9 7.8 0.00 0.00 0.00 46 1009.6
20260504224122 65 42 0.9 7.8 0.00 0.00 0.00 46 1009.5
20260504224003 65 25 1.7 7.8 0.00 0.00 0.00 46 1009.5
20260504223907 65 51 2.6 8.7 0.00 0.00 0.00 46 1009.5
20260504223810 65 16 1.7 6.1 0.00 0.00 0.00 45 1009.5
20260504223653 65 6 0.9 8.7 0.00 0.00 0.00 45 1009.4
20260504223602 65 86 0.9 8.7 0.00 0.00 0.00 45 1009.5
20260504223504 65 42 1.7 8.7 0.00 0.00 0.00 45 1009.4
20260504223408 65 42 1.7 8.7 0.00 0.00 0.00 45 1009.5
20260504223312 65 75 1.7 8.7 0.00 0.00 0.00 45 1009.4
20260504223155 65 37 2.6 9.6 0.00 0.00 0.00 45 1009.4
20260504223058 65 360 1.7 11.3 0.00 0.00 0.00 45 1009.4
20260504223005 65 357 1.7 11.3 0.00 0.00 0.00 45 1009.4
20260504222908 65 43 2.6 11.3 0.00 0.00 0.00 45 1009.4
20260504222812 65 353 3.5 11.3 0.00 0.00 0.00 44 1009.4
20260504222655 65 12 3.5 11.3 0.00 0.00 0.00 44 1009.4
20260504222600 65 44 3.5 11.3 0.00 0.00 0.00 44 1009.4
20260504222502 65 359 4.3 11.3 0.00 0.00 0.00 44 1009.4
20260504222426 65 352 5.2 11.3 0.00 0.00 0.00 44 1009.3
20260504222312 66 35 4.3 11.3 0.00 0.00 0.00 44 1009.3
20260504222156 66 74 4.3 11.3 0.00 0.00 0.00 44 1009.4
20260504222120 66 25 5.2 11.3 0.00 0.00 0.00 43 1009.2
20260504222021 66 8 5.2 11.3 0.00 0.00 0.00 43 1009.3
20260504221904 66 59 6.1 12.2 0.00 0.00 0.00 43 1009.4
20260504221807 66 19 5.2 11.3 0.00 0.00 0.00 43 1009.2
20260504221655 66 351 4.3 10.4 0.00 0.00 0.00 43 1009.3
20260504221559 66 9 3.5 10.4 0.00 0.00 0.00 43 1009.3
20260504221522 66 323 4.3 12.2 0.00 0.00 0.00 43 1009.4
20260504221404 66 359 5.2 12.2 0.00 0.00 0.00 42 1009.3
20260504221308 67 6 3.5 12.2 0.00 0.00 0.00 42 1009.3
20260504221211 67 348 2.6 12.2 0.00 0.00 0.00 43 1009.4
20260504221055 67 67 2.6 12.2 0.00 0.00 0.00 42 1009.3
20260504221001 67 335 3.5 12.2 0.00 0.00 0.00 42 1009.3
20260504220904 67 11 3.5 12.2 0.00 0.00 0.00 42 1009.3
20260504220808 67 19 4.3 12.2 0.00 0.00 0.00 42 1009.2
20260504220712 67 23 3.5 13.9 0.00 0.00 0.00 42 1009.3
20260504220615 67 18 4.3 13.9 0.00 0.00 0.00 42 1009.3
20260504220457 67 13 5.2 13.9 0.00 0.00 0.00 42 1009.2
20260504220404 67 33 5.2 13.9 0.00 0.00 0.00 42 1009.4
20260504220308 67 29 5.2 13.9 0.00 0.00 0.00 42 1009.2
20260504220211 67 332 6.1 13.9 0.00 0.00 0.00 42 1009.2
20260504220126 67 23 4.3 13.9 0.00 0.00 0.00 42 1009.2
20260504220011 67 22 3.5 13.9 0.00 0.00 0.00 42 1009.2
20260504215915 67 58 4.3 13.9 0.00 0.00 0.00 42 1009.2
20260504215757 67 335 3.5 11.3 0.00 0.00 0.00 42 1009.2
20260504215705 67 19 5.2 11.3 0.00 0.00 0.00 42 1009.2
20260504215608 67 45 5.2 11.3 0.00 0.00 0.00 42 1009.2
20260504215511 67 349 5.2 11.3 0.00 0.00 0.00 41 1009.2
20260504215354 67 4 3.5 11.3 0.00 0.00 0.00 42 1009.2
20260504215258 67 360 4.3 11.3 0.00 0.00 0.00 42 1009.2
20260504215201 67 335 5.2 11.3 0.00 0.00 0.00 41 1009.2
20260504215109 67 95 4.3 10.4 0.00 0.00 0.00 41 1009.4
20260504215011 67 311 4.3 11.3 0.00 0.00 0.00 41 1009.2
20260504214855 67 77 5.2 11.3 0.00 0.00 0.00 41 1009.2
20260504214758 68 36 6.1 11.3 0.00 0.00 0.00 41 1009.2
20260504214702 68 106 5.2 11.3 0.00 0.00 0.00 40 1009.2
20260504214605 68 10 4.3 11.3 0.00 0.00 0.00 40 1009.1
20260504214512 68 25 4.3 11.3 0.00 0.00 0.00 40 1009.2
20260504214355 68 20 3.5 11.3 0.00 0.00 0.00 40 1009.2
20260504214319 68 29 3.5 11.3 0.00 0.00 0.00 40 1009.2
20260504214201 68 44 3.5 11.3 0.00 0.00 0.00 40 1009.1
20260504214106 68 354 2.6 13.9 0.00 0.00 0.00 40 1009.2
20260504214008 68 348 1.7 13.9 0.00 0.00 0.00 40 1009.3
20260504213855 68 44 2.6 13.9 0.00 0.00 0.00 40 1009.2
20260504213759 68 44 3.5 13.9 0.00 0.00 0.00 39 1009.2
20260504213702 68 311 4.3 13.9 0.00 0.00 0.00 39 1009.1
20260504213606 68 36 5.2 13.9 0.00 0.00 0.00 39 1009.1
20260504213508 68 335 5.2 13.9 0.00 0.00 0.00 39 1009.2
20260504213412 68 13 6.1 13.9 0.00 0.00 0.00 39 1009.1
20260504213259 68 33 4.3 15.6 0.00 0.00 0.00 39 1009.1
20260504213203 68 41 2.6 11.3 0.00 0.00 0.00 39 1009.1
20260504213108 68 49 3.5 11.3 0.00 0.00 0.00 39 1009.1
20260504213010 68 103 4.3 11.3 0.00 0.00 0.00 39 1009.1
20260504212913 68 29 5.2 11.3 0.00 0.00 0.00 39 1009.0
20260504212756 68 91 4.3 10.4 0.00 0.00 0.00 39 1009.1
20260504212703 68 15 5.2 13.0 0.00 0.00 0.00 39 1009.0
20260504212608 68 32 6.1 13.0 0.00 0.00 0.00 39 1009.0
20260504212510 68 343 7.0 13.9 0.00 0.00 0.00 39 1009.0
20260504212353 69 314 6.1 13.9 0.00 0.00 0.00 38 1009.1
20260504212257 69 63 4.3 13.9 0.00 0.00 0.00 38 1009.1
20260504212200 69 340 3.5 13.9 0.00 0.00 0.00 38 1009.0
20260504212108 69 49 4.3 13.9 0.00 0.00 0.00 38 1009.1
20260504212011 69 11 4.3 13.9 0.00 0.00 0.00 38 1009.0
20260504211854 69 86 3.5 13.9 0.00 0.00 0.00 38 1009.0
20260504211757 69 3 4.3 13.9 0.00 0.00 0.00 38 1009.0
20260504211721 69 41 6.1 13.9 0.00 0.00 0.00 37 1009.0
20260504211605 69 23 4.3 11.3 0.00 0.00 0.00 37 1009.0
20260504211511 69 21 3.5 10.4 0.00 0.00 0.00 37 1009.0
20260504211355 69 32 4.3 10.4 0.00 0.00 0.00 37 1008.9
20260504211258 69 70 4.3 10.4 0.00 0.00 0.00 36 1008.9
20260504211222 69 79 2.6 14.8 0.00 0.00 0.00 37 1009.0
20260504211104 69 51 2.6 14.8 0.00 0.00 0.00 36 1009.0
20260504211027 69 39 5.2 14.8 0.00 0.00 0.00 36 1009.0
20260504210909 70 46 4.3 14.8 0.00 0.00 0.00 35 1008.9
20260504210757 70 308 3.5 14.8 0.00 0.00 0.00 35 1008.9
20260504210700 70 38 5.2 14.8 0.00 0.00 0.00 35 1009.0
20260504210603 70 10 5.2 14.8 0.00 0.00 0.00 35 1009.0
20260504210506 70 48 6.1 14.8 0.00 0.00 0.00 35 1009.0
20260504210410 70 72 6.1 14.8 0.00 0.00 0.00 34 1008.9
20260504210313 70 5 3.5 10.4 0.00 0.00 0.00 34 1008.9
20260504210201 71 12 4.3 10.4 0.00 0.00 0.00 34 1009.0
20260504210115 71 59 5.2 12.2 0.00 0.00 0.00 34 1008.9
20260504210000 71 67 5.2 10.4 0.00 0.00 0.00 33 1008.9
20260504205924 71 343 4.3 10.4 0.00 0.00 0.00 33 1008.9
20260504205807 71 38 1.7 8.7 0.00 0.00 0.00 33 1008.8
20260504205710 71 349 0.9 8.7 0.00 0.00 0.00 32 1008.8
20260504205559 71 65 0.9 8.7 0.00 0.00 0.00 33 1008.9
20260504205501 71 67 1.7 8.7 0.00 0.00 0.00 33 1008.8
20260504205404 71 96 2.6 8.7 0.00 0.00 0.00 33 1008.8
20260504205308 71 69 0.9 9.6 0.00 0.00 0.00 33 1008.8
20260504205212 71 76 1.7 9.6 0.00 0.00 0.00 33 1008.8
20260504205116 71 25 2.6 9.6 0.00 0.00 0.00 33 1008.7
20260504204958 71 86 1.7 9.6 0.00 0.00 0.00 33 1008.8
20260504204905 71 44 0.9 9.6 0.00 0.00 0.00 33 1008.8
20260504204809 71 22 0.9 9.6 0.00 0.00 0.00 33 1008.8
20260504204712 71 103 0.9 9.6 0.00 0.00 0.00 33 1008.8
20260504204616 71 100 2.6 9.6 0.00 0.00 0.00 33 1008.8
20260504204457 71 40 3.5 9.6 0.00 0.00 0.00 32 1008.8
20260504204401 71 66 1.7 7.8 0.00 0.00 0.00 33 1008.9
20260504204308 71 57 2.6 7.8 0.00 0.00 0.00 33 1008.9
20260504204212 71 90 2.6 7.8 0.00 0.00 0.00 32 1008.9
20260504204055 71 58 2.6 8.7 0.00 0.00 0.00 33 1008.8
20260504203958 71 350 0.9 8.7 0.00 0.00 0.00 33 1008.9
20260504203901 71 30 0.9 8.7 0.00 0.00 0.00 33 1008.9
20260504203825 71 35 1.7 8.7 0.00 0.00 0.00 33 1008.8
20260504203728 71 46 2.6 8.7 0.00 0.00 0.00 33 1008.8
20260504203614 71 69 2.6 8.7 0.00 0.00 0.00 33 1008.8
20260504203456 71 29 3.5 9.6 0.00 0.00 0.00 33 1008.8
20260504203400 71 11 4.3 10.4 0.00 0.00 0.00 33 1008.8
20260504203303 70 33 6.1 10.4 0.00 0.00 0.00 33 1008.9
20260504203207 71 52 4.3 10.4 0.00 0.00 0.00 32 1008.9
20260504203112 71 57 2.6 10.4 0.00 0.00 0.00 32 1008.9
20260504203018 71 52 2.6 10.4 0.00 0.00 0.00 32 1008.8
20260504202900 71 39 2.6 10.4 0.00 0.00 0.00 33 1008.9
20260504202825 71 333 5.2 10.4 0.00 0.00 0.00 33 1008.9
20260504202728 71 37 5.2 10.4 0.00 0.00 0.00 32 1008.8
20260504202611 71 8 5.2 10.4 0.00 0.00 0.00 32 1008.9
20260504202514 71 9 3.5 7.8 0.00 0.00 0.00 32 1008.8
20260504202357 71 29 2.6 8.7 0.00 0.00 0.00 33 1008.9
20260504202300 71 56 2.6 8.7 0.00 0.00 0.00 33 1008.8
20260504202208 71 33 3.5 8.7 0.00 0.00 0.00 32 1008.8
20260504202111 71 35 2.6 8.7 0.00 0.00 0.00 32 1008.9
20260504201953 71 73 1.7 8.7 0.00 0.00 0.00 33 1008.9
20260504201857 70 16 2.6 8.7 0.00 0.00 0.00 32 1008.9
20260504201801 70 5 1.7 8.7 0.00 0.00 0.00 32 1008.9
20260504201704 70 49 3.5 13.0 0.00 0.00 0.00 32 1008.9
20260504201613 70 75 4.3 13.0 0.00 0.00 0.00 32 1009.0
20260504201455 70 129 3.5 13.0 0.00 0.00 0.00 32 1008.9
20260504201358 70 25 2.6 13.0 0.00 0.00 0.00 33 1009.0
20260504201302 70 33 2.6 13.0 0.00 0.00 0.00 32 1008.9
20260504201205 70 55 2.6 13.0 0.00 0.00 0.00 33 1008.9
20260504201110 70 105 2.6 13.0 0.00 0.00 0.00 32 1009.0
20260504200956 70 97 5.2 13.0 0.00 0.00 0.00 32 1008.9
20260504200900 70 74 6.1 13.0 0.00 0.00 0.00 32 1008.9
20260504200803 71 1 5.2 14.8 0.00 0.00 0.00 32 1008.9
20260504200726 71 57 3.5 11.3 0.00 0.00 0.00 32 1008.9
20260504200630 71 65 2.6 11.3 0.00 0.00 0.00 32 1009.0
20260504200511 71 33 3.5 11.3 0.00 0.00 0.00 32 1008.9
20260504200359 71 23 5.2 11.3 0.00 0.00 0.00 31 1009.0
20260504200302 71 39 4.3 11.3 0.00 0.00 0.00 31 1009.1
20260504200206 71 53 4.3 10.4 0.00 0.00 0.00 32 1008.9
20260504200120 71 59 5.2 10.4 0.00 0.00 0.00 31 1008.9
20260504200005 71 27 2.6 10.4 0.00 0.00 0.00 32 1008.9
20260504195908 71 26 2.6 10.4 0.00 0.00 0.00 32 1008.9
20260504195756 70 67 3.5 10.4 0.00 0.00 0.00 32 1008.9
20260504195659 70 45 1.7 11.3 0.00 0.00 0.00 32 1008.9
20260504195624 70 27 2.6 9.6 0.00 0.00 0.00 32 1008.8
20260504195505 70 40 4.3 9.6 0.00 0.00 0.00 32 1008.9
20260504195429 70 76 3.5 9.6 0.00 0.00 0.00 32 1008.9
20260504195312 70 105 2.6 9.6 0.00 0.00 0.00 32 1008.9
20260504195155 70 358 2.6 11.3 0.00 0.00 0.00 32 1009.0
20260504195103 70 83 3.5 11.3 0.00 0.00 0.00 32 1009.0
20260504195005 70 19 6.1 12.2 0.00 0.00 0.00 31 1009.0
20260504194928 70 8 4.3 12.2 0.00 0.00 0.00 31 1009.0
20260504194810 70 326 2.6 12.2 0.00 0.00 0.00 32 1009.1
20260504194734 70 46 3.5 12.2 0.00 0.00 0.00 32 1009.1
20260504194557 70 79 4.3 12.2 0.00 0.00 0.00 31 1009.0
20260504194500 70 340 3.5 12.2 0.00 0.00 0.00 31 1009.1
20260504194407 70 30 3.5 12.2 0.00 0.00 0.00 31 1009.1
20260504194310 71 357 5.2 12.2 0.00 0.00 0.00 31 1009.0
20260504194213 71 25 6.1 12.2 0.00 0.00 0.00 31 1009.0
20260504194057 71 10 4.3 12.2 0.00 0.00 0.00 31 1009.0
20260504193959 71 49 3.5 12.2 0.00 0.00 0.00 31 1009.1
20260504193902 71 68 3.5 12.2 0.00 0.00 0.00 31 1009.0
20260504193826 71 72 4.3 12.2 0.00 0.00 0.00 32 1009.0
20260504193713 71 33 6.1 12.2 0.00 0.00 0.00 32 1009.0
20260504193556 71 75 2.6 13.9 0.00 0.00 0.00 31 1009.0
20260504193458 71 46 0.9 9.6 0.00 0.00 0.00 32 1009.0
20260504193402 71 79 3.5 9.6 0.00 0.00 0.00 32 1009.0
20260504193306 71 338 5.2 9.6 0.00 0.00 0.00 31 1009.1
20260504193229 71 122 3.5 9.6 0.00 0.00 0.00 32 1009.0
20260504193057 71 49 2.6 8.7 0.00 0.00 0.00 32 1008.9
20260504192959 71 83 1.7 8.7 0.00 0.00 0.00 32 1009.1
20260504192903 71 82 0.9 8.7 0.00 0.00 0.00 31 1009.0
20260504192806 71 74 2.6 8.7 0.00 0.00 0.00 32 1008.9
20260504192710 71 17 2.6 8.7 0.00 0.00 0.00 31 1009.0
20260504192633 70 23 1.7 8.7 0.00 0.00 0.00 32 1009.0
20260504192459 70 49 4.3 11.3 0.00 0.00 0.00 31 1009.0
20260504192422 70 75 4.3 11.3 0.00 0.00 0.00 31 1008.9
20260504192305 70 77 1.7 11.3 0.00 0.00 0.00 32 1009.1
20260504192208 70 322 2.6 11.3 0.00 0.00 0.00 32 1009.0
20260504192112 70 26 3.5 11.3 0.00 0.00 0.00 31 1009.0
20260504191954 70 304 3.5 11.3 0.00 0.00 0.00 32 1009.1
20260504191858 70 9 4.3 11.3 0.00 0.00 0.00 31 1009.0
20260504191805 70 11 5.2 13.9 0.00 0.00 0.00 31 1009.0
20260504191709 70 90 4.3 13.9 0.00 0.00 0.00 31 1009.1
20260504191633 70 91 3.5 13.9 0.00 0.00 0.00 32 1009.0
20260504191454 70 81 4.3 13.9 0.00 0.00 0.00 31 1008.9
20260504191357 70 64 4.3 13.9 0.00 0.00 0.00 31 1009.0
20260504191301 70 70 3.5 13.9 0.00 0.00 0.00 31 1009.0
20260504191208 70 71 3.5 13.9 0.00 0.00 0.00 32 1009.0
20260504191113 70 56 5.2 13.9 0.00 0.00 0.00 31 1009.0
20260504190955 70 36 3.5 13.9 0.00 0.00 0.00 31 1009.1
20260504190859 70 78 4.3 13.0 0.00 0.00 0.00 32 1009.1
20260504190801 70 59 6.1 13.0 0.00 0.00 0.00 31 1009.0
20260504190705 70 94 6.1 12.2 0.00 0.00 0.00 30 1009.1
20260504190613 70 129 5.2 12.2 0.00 0.00 0.00 31 1008.9
20260504190455 71 53 4.3 12.2 0.00 0.00 0.00 31 1009.1
20260504190359 71 72 2.6 10.4 0.00 0.00 0.00 31 1009.1
20260504190303 70 33 2.6 10.4 0.00 0.00 0.00 32 1009.1
20260504190226 70 39 1.7 10.4 0.00 0.00 0.00 31 1009.0
20260504190119 70 56 2.6 10.4 0.00 0.00 0.00 31 1009.0
20260504190004 70 91 3.5 10.4 0.00 0.00 0.00 31 1009.1
20260504185912 70 28 2.6 11.3 0.00 0.00 0.00 31 1009.1
20260504185755 70 47 1.7 12.2 0.00 0.00 0.00 31 1009.2
20260504185659 70 93 3.5 12.2 0.00 0.00 0.00 31 1009.2
20260504185602 70 53 3.5 12.2 0.00 0.00 0.00 31 1009.3
20260504185525 70 12 2.6 12.2 0.00 0.00 0.00 31 1009.3
20260504185407 70 25 2.6 12.2 0.00 0.00 0.00 31 1009.3
20260504185315 70 75 2.6 12.2 0.00 0.00 0.00 31 1009.2
20260504185157 70 217 1.7 12.2 0.00 0.00 0.00 31 1009.3
20260504185102 70 11 3.5 12.2 0.00 0.00 0.00 31 1009.3
20260504185025 70 98 3.5 14.8 0.00 0.00 0.00 31 1009.3
20260504184907 70 73 1.7 14.8 0.00 0.00 0.00 31 1009.2
20260504184811 70 106 3.5 14.8 0.00 0.00 0.00 31 1009.3
20260504184714 70 61 3.5 14.8 0.00 0.00 0.00 31 1009.3
20260504184601 70 82 3.5 14.8 0.00 0.00 0.00 31 1009.2
20260504184503 70 56 3.5 14.8 0.00 0.00 0.00 31 1009.2
20260504184407 70 115 4.3 14.8 0.00 0.00 0.00 31 1009.2
20260504184310 70 72 5.2 14.8 0.00 0.00 0.00 31 1009.2
20260504184213 70 32 2.6 16.5 0.00 0.00 0.00 32 1009.3
20260504184057 70 62 1.7 13.9 0.00 0.00 0.00 32 1009.4
20260504184004 70 11 3.5 13.9 0.00 0.00 0.00 32 1009.4
20260504183908 70 352 2.6 13.9 0.00 0.00 0.00 31 1009.3
20260504183810 70 105 2.6 13.9 0.00 0.00 0.00 32 1009.4
20260504183653 70 66 4.3 13.9 0.00 0.00 0.00 31 1009.3
20260504183557 70 82 4.3 13.9 0.00 0.00 0.00 31 1009.4
20260504183459 70 108 4.3 13.9 0.00 0.00 0.00 32 1009.4
20260504183407 70 42 5.2 13.9 0.00 0.00 0.00 31 1009.3
20260504183310 70 67 6.1 14.8 0.00 0.00 0.00 31 1009.4
20260504183153 71 44 5.2 10.4 0.00 0.00 0.00 31 1009.4
20260504183057 71 32 4.3 10.4 0.00 0.00 0.00 31 1009.4
20260504183020 71 44 2.6 10.4 0.00 0.00 0.00 32 1009.4
20260504182944 70 65 2.6 10.4 0.00 0.00 0.00 32 1009.4
20260504182802 70 90 2.6 10.4 0.00 0.00 0.00 31 1009.3
20260504182710 70 60 3.5 10.4 0.00 0.00 0.00 33 1009.2
20260504182613 70 103 3.5 10.4 0.00 0.00 0.00 31 1009.4
20260504182456 70 63 4.3 10.4 0.00 0.00 0.00 31 1009.4
20260504182419 70 47 5.2 11.3 0.00 0.00 0.00 31 1009.3
20260504182304 70 103 2.6 9.6 0.00 0.00 0.00 31 1009.4
20260504182205 70 32 2.6 9.6 0.00 0.00 0.00 32 1009.4
20260504182109 70 65 2.6 9.6 0.00 0.00 0.00 32 1009.4
20260504181955 70 79 1.7 9.6 0.00 0.00 0.00 32 1009.5
20260504181859 70 79 1.7 9.6 0.00 0.00 0.00 32 1009.5
20260504181802 70 101 0.9 10.4 0.00 0.00 0.00 33 1009.5
20260504181706 70 88 3.5 10.4 0.00 0.00 0.00 32 1009.5
20260504181609 70 100 2.6 10.4 0.00 0.00 0.00 32 1009.5
20260504181532 69 91 1.7 10.4 0.00 0.00 0.00 32 1009.4
20260504181358 69 75 1.7 10.4 0.00 0.00 0.00 31 1009.5
20260504181302 69 41 2.6 10.4 0.00 0.00 0.00 31 1009.5
20260504181205 69 68 4.3 10.4 0.00 0.00 0.00 31 1009.5
20260504181110 70 47 6.1 10.4 0.00 0.00 0.00 31 1009.5
20260504181012 70 60 5.2 10.4 0.00 0.00 0.00 30 1009.6
20260504180856 70 1 1.7 17.4 0.00 0.00 0.00 31 1009.6
20260504180823 70 145 1.7 17.4 0.00 0.00 0.00 31 1009.5
20260504180705 70 65 3.5 17.4 0.00 0.00 0.00 31 1009.5
20260504180609 70 30 3.5 17.4 0.00 0.00 0.00 30 1009.6
20260504180512 70 71 1.7 17.4 0.00 0.00 0.00 32 1009.7
20260504180355 69 30 2.6 17.4 0.00 0.00 0.00 31 1009.7
20260504180259 69 42 4.3 17.4 0.00 0.00 0.00 31 1009.7
20260504180206 69 85 4.3 17.4 0.00 0.00 0.00 31 1009.8
20260504180121 69 111 4.3 17.4 0.00 0.00 0.00 31 1009.7
20260504180006 69 86 4.3 19.1 0.00 0.00 0.00 32 1009.7
20260504175909 69 80 4.3 14.8 0.00 0.00 0.00 31 1009.7
20260504175812 69 9 6.1 14.8 0.00 0.00 0.00 31 1009.7
20260504175655 69 345 5.2 14.8 0.00 0.00 0.00 31 1009.8
20260504175603 69 137 5.2 14.8 0.00 0.00 0.00 31 1009.8
20260504175506 69 86 3.5 14.8 0.00 0.00 0.00 32 1009.9
20260504175409 69 49 4.3 14.8 0.00 0.00 0.00 31 1009.8
20260504175313 69 15 6.1 14.8 0.00 0.00 0.00 31 1009.8
20260504175155 69 57 5.2 14.8 0.00 0.00 0.00 32 1009.8
20260504175059 69 78 5.2 16.5 0.00 0.00 0.00 32 1009.8
20260504175006 69 69 4.3 13.0 0.00 0.00 0.00 32 1009.7
20260504174910 69 33 4.3 13.0 0.00 0.00 0.00 31 1009.7
20260504174813 69 66 2.6 13.0 0.00 0.00 0.00 32 1009.8
20260504174656 69 136 1.7 13.0 0.00 0.00 0.00 31 1009.8
20260504174600 69 22 0.9 13.0 0.00 0.00 0.00 31 1009.8
20260504174502 69 80 1.7 13.0 0.00 0.00 0.00 31 1009.7
20260504174426 69 345 3.5 13.0 0.00 0.00 0.00 31 1009.7
20260504174313 69 98 5.2 13.0 0.00 0.00 0.00 30 1009.6
20260504174156 69 79 3.5 13.0 0.00 0.00 0.00 31 1009.7
20260504174101 69 177 4.3 13.0 0.00 0.00 0.00 31 1009.8
20260504174002 69 49 5.2 13.0 0.00 0.00 0.00 32 1009.7
20260504173906 69 105 4.3 13.9 0.00 0.00 0.00 32 1009.8
20260504173809 69 81 3.5 13.9 0.00 0.00 0.00 32 1009.7
20260504173717 69 57 2.6 13.9 0.00 0.00 0.00 32 1009.6
20260504173620 69 71 2.6 13.9 0.00 0.00 0.00 31 1009.5
20260504173522 69 342 3.5 13.9 0.00 0.00 0.00 31 1009.6
20260504173404 69 61 3.5 13.9 0.00 0.00 0.00 31 1009.6
20260504173307 69 30 4.3 13.9 0.00 0.00 0.00 31 1009.6
20260504173211 69 357 4.3 15.6 0.00 0.00 0.00 31 1009.6
20260504173055 69 64 6.1 15.6 0.00 0.00 0.00 32 1009.7
20260504173001 69 18 7.0 15.6 0.00 0.00 0.00 31 1009.6
20260504172904 69 119 4.3 15.6 0.00 0.00 0.00 31 1009.6
20260504172807 69 44 4.3 15.6 0.00 0.00 0.00 32 1009.6
20260504172711 69 21 4.3 15.6 0.00 0.00 0.00 31 1009.6
20260504172614 69 99 3.5 15.6 0.00 0.00 0.00 32 1009.6
20260504172456 69 328 5.2 15.6 0.00 0.00 0.00 32 1009.8
20260504172403 68 42 5.2 16.5 0.00 0.00 0.00 32 1009.6
20260504172307 68 23 4.3 14.8 0.00 0.00 0.00 32 1009.6
20260504172211 68 73 4.3 14.8 0.00 0.00 0.00 31 1009.5
20260504172114 68 231 5.2 14.8 0.00 0.00 0.00 32 1009.6
20260504171956 68 17 6.1 12.2 0.00 0.00 0.00 31 1009.7
20260504171900 69 4 5.2 13.0 0.00 0.00 0.00 31 1009.6
20260504171807 69 72 2.6 11.3 0.00 0.00 0.00 32 1009.5
20260504171711 69 113 3.5 11.3 0.00 0.00 0.00 32 1009.6
20260504171555 69 91 5.2 12.2 0.00 0.00 0.00 32 1009.6
20260504171458 69 37 2.6 10.4 0.00 0.00 0.00 31 1009.7
20260504171401 69 98 3.5 10.4 0.00 0.00 0.00 32 1009.8
20260504171326 68 173 3.5 10.4 0.00 0.00 0.00 32 1009.7
20260504171213 68 354 3.5 11.3 0.00 0.00 0.00 32 1009.7
20260504171056 68 79 3.5 11.3 0.00 0.00 0.00 33 1009.7
20260504170959 68 67 2.6 11.3 0.00 0.00 0.00 33 1009.6
20260504170902 68 354 2.6 17.4 0.00 0.00 0.00 33 1009.7
20260504170806 68 80 2.6 17.4 0.00 0.00 0.00 33 1009.7
20260504170709 67 82 0.9 17.4 0.00 0.00 0.00 32 1009.8
20260504170616 67 34 3.5 17.4 0.00 0.00 0.00 32 1009.7
20260504170458 68 29 6.1 17.4 0.00 0.00 0.00 32 1009.8
20260504170422 68 83 3.5 17.4 0.00 0.00 0.00 33 1009.9
20260504170304 68 44 2.6 17.4 0.00 0.00 0.00 32 1009.8
20260504170208 67 47 4.3 17.4 0.00 0.00 0.00 32 1009.8
20260504170123 67 59 5.2 17.4 0.00 0.00 0.00 32 1009.8
20260504160358 67 129 1.7 12.2 0.00 0.00 0.00 34 1010.5
20260504160301 67 9 2.6 12.2 0.00 0.00 0.00 33 1010.7
20260504160205 67 84 3.5 12.2 0.00 0.00 0.00 34 1010.6
20260504160140 67 60 4.3 12.2 0.00 0.00 0.00 34 1010.7
20260504151113 65 25 4.3 11.3 0.00 0.00 0.00 37 1011.2
20260504150955 65 23 5.2 11.3 0.00 0.00 0.00 38 1011.1
20260504150859 65 76 3.5 10.4 0.00 0.00 0.00 38 1011.1
20260504150803 65 42 3.5 10.4 0.00 0.00 0.00 38 1011.3
20260504150706 64 44 3.5 10.4 0.00 0.00 0.00 39 1011.2
20260504150614 64 113 3.5 10.4 0.00 0.00 0.00 38 1011.1
20260504150456 64 53 4.3 10.4 0.00 0.00 0.00 38 1011.1
20260504150419 64 170 5.2 10.4 0.00 0.00 0.00 38 1011.2
20260504150153 65 10 3.5 10.4 0.00 0.00 0.00 37 1011.2
20260504150129 65 41 3.5 10.4 0.00 0.00 0.00 37 1011.1
20260504141257 63 300 2.6 11.3 0.00 0.01 0.00 40 1011.8
20260504141201 63 57 1.7 8.7 0.00 0.01 0.00 41 1011.8
20260504141105 63 49 1.7 7.8 0.00 0.01 0.00 41 1011.8
20260504141011 63 130 1.7 7.8 0.00 0.01 0.00 40 1011.7
20260504140854 63 92 2.6 7.8 0.00 0.01 0.00 41 1011.8
20260504140758 63 117 2.6 7.8 0.00 0.01 0.00 40 1011.8
20260504140701 63 25 0.9 7.0 0.00 0.01 0.00 42 1011.8
20260504140606 63 41 0.0 7.0 0.00 0.01 0.00 42 1011.7
20260504140529 62 36 0.9 7.0 0.00 0.01 0.00 42 1011.8
20260504140431 62 86 1.7 7.0 0.00 0.01 0.00 42 1011.8
20260504140258 62 47 1.7 9.6 0.00 0.01 0.00 42 1011.9
20260504140201 62 56 1.7 9.6 0.00 0.01 0.00 42 1011.9
20260504140116 62 68 3.5 9.6 0.00 0.01 0.00 42 1011.9
20260504130759 58 72 1.7 7.8 0.00 0.01 0.00 46 1012.4
20260504130703 58 81 1.7 7.8 0.00 0.01 0.00 46 1012.5
20260504130606 58 58 0.9 8.7 0.00 0.01 0.00 47 1012.5
20260504130513 58 90 0.9 7.0 0.00 0.01 0.00 47 1012.5
20260504130356 58 70 0.9 7.0 0.00 0.01 0.00 47 1012.5
20260504130300 58 82 1.7 7.0 0.00 0.01 0.00 47 1012.5
20260504130203 58 70 1.7 7.0 0.00 0.01 0.00 46 1012.5
20260504130117 58 96 1.7 7.0 0.00 0.01 0.00 47 1012.5
20260504120302 52 19 1.7 9.6 0.00 0.01 0.01 52 1012.8
20260504120209 52 88 2.6 9.6 0.00 0.01 0.01 52 1012.7
20260504120144 52 117 2.6 9.6 0.00 0.01 0.01 52 1012.7
20260504110655 48 41 0.9 4.3 0.00 0.01 0.01 58 1012.6
20260504110623 48 73 0.9 4.3 0.00 0.01 0.01 57 1012.6
20260504110505 48 44 0.9 3.5 0.00 0.01 0.01 57 1012.6
20260504110429 48 55 0.9 3.5 0.00 0.01 0.01 57 1012.6
20260504110310 48 56 1.7 3.5 0.00 0.01 0.01 58 1012.6
20260504110214 47 84 0.9 3.5 0.00 0.01 0.01 58 1012.6
20260504110149 47 65 1.7 4.3 0.00 0.01 0.01 58 1012.6
20260504100515 0 0.0 0.0 0.00 0.01 0.01 1012.6
20260504100401 0 0.0 0.0 0.00 0.01 0.01 1012.6
20260504100305 0 0.0 0.0 0.00 0.01 0.01 1012.5
20260504100208 0 0.0 0.0 0.00 0.01 0.01 1012.6
20260504100143 0 0.0 0.0 0.00 0.01 0.01 1012.5
20260504090126 44 51 0.0 1.7 0.00 0.01 0.01 61 1012.4
20260504081907 45 68 0.0 0.0 0.00 0.01 0.01 58 1012.3
20260504081811 45 68 0.0 0.9 0.00 0.01 0.01 58 1012.3
20260504081658 45 68 0.0 0.9 0.00 0.01 0.01 58 1012.3
20260504081601 45 68 0.0 0.9 0.00 0.01 0.01 58 1012.2
20260504081504 45 68 0.0 0.9 0.00 0.01 0.01 59 1012.2
20260504081407 45 68 0.0 0.9 0.00 0.01 0.01 59 1012.2
20260504081311 45 68 0.0 0.9 0.00 0.01 0.01 58 1012.2
20260504081154 45 68 0.0 0.9 0.00 0.01 0.01 57 1012.2
20260504081103 45 68 0.0 0.9 0.00 0.01 0.01 57 1012.2
20260504081026 45 51 0.0 0.9 0.00 0.01 0.01 58 1012.3
20260504080928 45 51 0.0 0.9 0.00 0.01 0.01 58 1012.2
20260504080811 45 41 0.0 0.9 0.00 0.01 0.01 58 1012.3
20260504080715 45 41 0.0 0.9 0.00 0.01 0.01 59 1012.3
20260504080557 45 41 0.0 0.9 0.00 0.01 0.01 59 1012.3
20260504080500 45 36 0.0 1.7 0.00 0.01 0.01 60 1012.3
20260504080407 45 60 0.0 0.0 0.00 0.01 0.01 59 1012.3
20260504080331 45 60 0.0 0.0 0.00 0.01 0.01 60 1012.3
20260504080153 45 60 0.0 0.0 0.00 0.01 0.01 59 1012.3
20260504080129 45 60 0.0 0.0 0.00 0.01 0.01 59 1012.3
20260504070411 44 65 0.0 0.0 0.00 0.01 0.01 60 1012.1
20260504070254 44 65 0.0 0.0 0.00 0.01 0.01 59 1012.2
20260504070157 44 65 0.0 0.0 0.00 0.01 0.01 60 1012.1
20260504070112 44 65 0.0 0.9 0.00 0.01 0.01 60 1012.1
20260504060205 43 82 0.0 0.0 0.00 0.01 0.01 60 1012.1
20260504060119 43 82 0.0 0.0 0.00 0.01 0.01 60 1012.1
20260504050713 42 74 0.0 1.7 0.00 0.01 0.01 61 1012.2
20260504050556 42 74 0.0 1.7 0.00 0.01 0.01 61 1012.2
20260504050502 42 88 0.0 2.6 0.00 0.01 0.01 61 1012.2
20260504050406 42 87 0.0 2.6 0.00 0.01 0.01 61 1012.2
20260504050309 42 88 0.0 2.6 0.00 0.01 0.01 61 1012.2
20260504050213 42 87 0.0 2.6 0.00 0.01 0.01 61 1012.2
20260504050128 42 88 0.0 2.6 0.00 0.01 0.01 61 1012.2
20260504050013 42 88 0.0 2.6 0.00 0.01 0.01 61 1012.2
20260504045900 42 87 0.9 2.6 0.00 0.01 0.01 61 1012.2
20260504045804 42 88 0.9 2.6 0.00 0.01 0.01 61 1012.2
20260504045728 42 84 0.0 2.6 0.00 0.01 0.01 61 1012.1
20260504045631 42 42 0.0 0.9 0.00 0.01 0.01 61 1012.1
20260504045512 41 43 0.0 0.9 0.00 0.01 0.01 61 1012.1
20260504045355 41 42 0.0 0.9 0.00 0.01 0.01 62 1012.2
20260504045259 41 42 0.0 0.9 0.00 0.01 0.01 62 1012.2
20260504045206 41 42 0.0 0.9 0.00 0.01 0.01 62 1012.2
20260504045111 41 43 0.0 0.9 0.00 0.01 0.01 62 1012.2
20260504044953 41 42 0.0 0.9 0.00 0.01 0.01 62 1012.3